Location: Newark
(55.7816°N, 8.2389°E)
Time: 21:26:38
(UTC+00:00)

LilacSat-2 - Pass Details

Date: 25 February 2020
Orbit: 514 x 534 km, 97.5° (Epoch: 06 April)

Event Time Altitude Azimuth Distance (km) Brightness Sun altitude
Rises 03:55:52 0° 31° (NNE) 2,657 ? -22.2°
Reaches altitude 10° 03:59:52 10° 74° (ENE) 1,766 ? -21.7°
Maximum altitude 04:00:33 10° 84° (E) 1,741 ? -21.6°
Drops below altitude 10° 04:01:14 10° 95° (E) 1,765 ? -21.5°
Sets 04:05:14 0° 137° (SE) 2,651 ? -20.9°
